Location: Abundant Grace Fellowship
(35.0349°N, 90.0924°W)
Time: 20:35:18
(UTC+00:00)

Cosmos 1850 Rocket - Pass Details

Date: 18 January 2026
Orbit: 749 x 781 km, 74.0° (Epoch: 10 February)

Event Time Altitude Azimuth Distance (km) Brightness Sun altitude
Rises 00:07:56 0° 341° (NNW) 3,261 7.3 -11.1°
Reaches altitude 10° 00:10:19 10° 341° (NNW) 2,334 6.5 -11.6°
Maximum altitude 00:15:38 82° 254° (WSW) 792 4.1 -12.6°
Drops below altitude 10° 00:20:56 10° 168° (SSE) 2,326 6.5 -13.7°
Sets 00:23:18 0° 167° (SSE) 3,249 7.3 -14.1°
